www.pogodaiklimat.ru

Погода и климат >> Архив погоды >> Кипр >> Akrotiri


ПОГОДА в Akrotiri

  • Прогноз погоды в Akrotiri
  • Монитор погоды в Akrotiri
  • Климат города

АРХИВ ПОГОДЫ в Akrotiri

Время (UTC), дата Ветер
(напр.,м/с)
 
Видим.   Явления Облачность Т
(С)
Тd
(С)
f
(%)
Тe
(С)
Тes
(С)
Комфортность P
(гПа)
Po
(гПа)
Тmin
(С)
Tmax
(С)
R
(мм)
R24
(мм)
S
(см)
19 15.04 З 2 30 км 3/0
[Ci fib]
+19.9 +16.1 79 +23 +23 комфорт 1013.9 1010.8
20 15.04 З 3 40 км 5/0
[Ci fib]
+19.9 +15.4 75 +23 +23 комфорт 1014.3 1011.2
21 15.04 З 2 40 км 5/0
[Ci fib]
+19.7 +14.8 73 +22 +22 комфорт 1014.2 1011.2
22 15.04 З 2 30 км 8/0
[Ci fib]
+19.6 +14.7 73 +22 +22 комфорт 1014.2 1011.1
23 15.04 В 1 30 км 5/0
[Ci fib]
+17.8 +14.9 83 +19 +19 1014.0 1010.9
00 16.04 СВ 1 30 км 4/0
[Ci fib]
+16.9 +13.8 82 +18 +18 1013.6 1010.5
01 16.04 СЗ 1 30 км 3/0
[Ci fib]
+16.0 +13.1 83 +17 +17 1013.4 1010.3
02 16.04 В 1 30 км 1/0
[Ci fib]
+15.2 +11.6 79 +16 +16 1013.5 1010.4
03 16.04 СЗ 3 30 км 3/0
[Ci fib]
+17.0 +9.8 63 +17 +17 1013.5 1010.4
04 16.04 СВ 4 35 км 1/0
[Ci fib]
+19.2 +3.8 36 +19 +20 1014.2 1011.1
05 16.04 СВ 2 45 км 1/0
[Ci fib]
+22.5 +5.8 34 +23 +26 комфорт 1014.5 1011.5
06 16.04 СВ 7 45 км 1/0
[Ci fib]
+24.5 +5.7 30 +24 +26 комфорт 1015.0 1011.9 +14.8
07 16.04 В 7 40 км 1/0
[Ci fib]
+25.5 +7.0 31 +25 +28 комфорт 1015.6 1012.5
08 16.04 В 9 40 км 1/0
[Ci fib]
+25.7 +5.3 27 +25 +26 комфорт 1015.9 1012.9
09 16.04 В 9 40 км 1/0
[Ci fib]
+25.5 +6.2 29 +25 +27 комфорт 1015.9 1012.9
10 16.04 В 9 40 км 1/0
[Ci fib]
+26.1 +4.7 25 +25 +27 комфорт 1015.6 1012.6
11 16.04 В 8
{13}
40 км 4/0
[Ci fib]
+26.1 +6.2 28 +26 +29 жарко 1016.2 1013.2
12 16.04 В 7 40 км 3/0
[Ci fib]
+25.3 +6.2 29 +25 +28 комфорт 1016.0 1013.0
13 16.04 В 6 40 км 1/0
[Ci fib]
+24.6 +3.6 26 +24 +27 комфорт 1015.8 1012.8
14 16.04 В 5 40 км 1/0
[Ci fib]
+24.3 +7.0 33 +24 +27 комфорт 1015.4 1012.4
15 16.04 ЮВ 2 40 км 1/0
[Ci fib]
+23.8 +9.3 40 +25 +26 комфорт 1015.1 1012.1
16 16.04 ЮЗ 2 40 км 1/0
[Ci fib]
+22.1 +10.8 49 +24 +24 комфорт 1015.3 1012.3
17 16.04 З 2 40 км 3/0
[Ci fib]
+20.3 +12.8 62 +23 +23 комфорт 1015.6 1012.5
18 16.04 З 2 40 км 1/0
[Ci fib]
+19.2 +11.7 62 +21 +21 комфорт 1015.9 1012.9 +26.4
19 16.04 З 2 40 км 1/0
[Ci fib]
+18.7 +9.0 53 +20 +20 1016.4 1013.4
20 16.04 СЗ 1 40 км 3/0
[Ci fib]
+17.0 +8.0 55 +18 +18 1016.3 1013.2
21 16.04 З 1 40 км 3/0
[Ci fib]
+16.2 +7.2 55 +17 +17 1016.2 1013.1
22 16.04 СЗ 1 40 км 5/0
[Ci fib]
+15.7 +6.1 53 +16 +16 1015.9 1012.8
23 16.04 СВ 1 40 км 5/0
[Ci fib]
+14.8 +6.1 56 +15 +15 1015.8 1012.7
00 17.04 В 3 40 км 5/0
[Ci fib]
+16.5 +8.3 58 +16 +16 1014.9 1011.8
01 17.04 В 2 40 км 8/0
[Ci fib]
+15.9 +12.4 80 +16 +16 1014.8 1011.7
02 17.04 СВ 2 40 км 8/0
[Ci fib]
+15.8 +9.4 66 +16 +16 1014.4 1011.3
03 17.04 З 2 35 км 8/0
[Ac cast Ci fib]
+15.7 +6.8 55 +16 +16 1015.3 1012.2
04 17.04 СЗ 2 40 км 8/0
[Ac cast Ci fib]
+15.9 +3.2 43 +16 +16 1016.1 1013.0
05 17.04 СЗ 2 60 км 3/0
[Ac trans]
+16.4 +3.6 42 +17 +20 1016.6 1013.5
06 17.04 З 2 60 км 1/0
[Ac trans]
+21.7 +4.3 32 +22 +29 комфорт 1016.9 1013.9 +14.8
07 17.04 З 3 55 км ясно +24.8 -0.3 19 +23 +33 комфорт 1017.3 1014.2
08 17.04 ЮЗ 4 55 км ясно +25.3 +1.3 21 +24 +34 комфорт 1017.5 1014.5
09 17.04 ЮЗ 4 50 км ясно +25.7 +2.1 22 +24 +38 комфорт 1017.2 1014.2
10 17.04 ЮЗ 4 50 км ясно +25.7 +2.6 22 +24 +38 комфорт 1017.0 1014.0
11 17.04 ЮЗ 4 50 км ясно +26.5 +4.5 24 +25 +37 комфорт 1016.7 1013.7
12 17.04 ЮЗ 4 50 км ясно +26.7 -0.3 17 +25 +35 комфорт 1016.3 1013.3
13 17.04 ЮЗ 4 50 км ясно +26.5 +0.1 18 +25 +32 комфорт 1015.9 1012.9
14 17.04 З 4 50 км ясно +26.4 0.0 18 +25 +28 комфорт 1015.7 1012.7
15 17.04 З 4 50 км ясно +24.3 -0.9 19 +23 +24 комфорт 1015.6 1012.6
16 17.04 З 3 50 км ясно +23.2 +3.7 28 +23 +23 комфорт 1015.3 1012.2
17 17.04 З 2 50 км ясно +22.0 +5.0 33 +22 +22 комфорт 1015.4 1012.3
18 17.04 З 1 50 км ясно +20.5 +12.7 61 +24 +24 комфорт 1015.9 1012.8 +27.4
19 17.04 ЮЗ 3 45 км ясно +19.5 +12.5 64 +21 +21 комфорт 1016.2 1013.2
20 17.04 З 2 45 км ясно +18.9 +14.8 77 +21 +21 комфорт 1016.2 1013.1
21 17.04 СЗ 1 40 км ясно +17.8 +13.8 77 +19 +19 1016.3 1013.2
22 17.04 В 1 40 км ясно +16.7 +10.8 68 +18 +18 1016.4 1013.3
23 17.04 В 1 40 км ясно +17.3 +12.2 72 +18 +18 1016.3 1013.2
00 18.04 СВ 2 40 км ясно +17.0 +13.2 78 +18 +18 1016.3 1013.2
01 18.04 СВ 2 40 км ясно +16.1 +12.0 77 +16 +16 1016.5 1013.4
02 18.04 СВ 2 40 км ясно +15.9 +9.6 66 +16 +16 1016.6 1013.5
03 18.04 С 1 40 км ясно +15.3 +9.0 66 +16 +16 1016.7 1013.6
04 18.04 С 1 50 км ясно +15.2 +5.7 53 +16 +17 1017.2 1014.0
05 18.04 С 1 50 км ясно +19.0 +3.7 36 +20 +24 1017.5 1014.4
06 18.04 В 2 50 км ясно +23.0 +0.3 22 +22 +29 комфорт 1017.7 1014.7 +14.9
07 18.04 В 3 50 км ясно +23.8 +5.2 30 +24 +33 комфорт 1017.8 1014.7
08 18.04 В 3 50 км ясно +25.9 -1.7 16 +24 +38 комфорт 1018.1 1015.1
09 18.04 В 4 50 км ясно +27.6 -2.4 14 +25 +38 комфорт 1017.9 1014.9
10 18.04 ЮВ 4 50 км ясно +27.9 +1.1 18 +26 +40 жарко 1017.7 1014.7
11 18.04 Ю 4 35 км ясно +27.0 +3.5 22 +26 +37 жарко 1017.4 1014.4
12 18.04 Ю 3 35 км ясно +26.9 +8.5 31 +27 +38 жарко 1017.2 1014.2
13 18.04 ЮЗ 3 40 км ясно +26.2 +6.1 28 +26 +34 жарко 1016.7 1013.7
14 18.04 З 5 40 км ясно +25.1 +9.1 36 +26 +29 жарко 1016.4 1013.4
15 18.04 З 5 40 км ясно +24.0 +12.4 48 +26 +27 жарко 1016.1 1013.0
16 18.04 З 4 40 км ясно +23.3 +9.6 42 +25 +25 комфорт 1015.8 1012.8
17 18.04 З 4 40 км ясно +21.4 +15.0 67 +25 +25 комфорт 1015.7 1012.7
18 18.04 З 2 40 км ясно +20.5 +16.8 79 +24 +24 комфорт 1016.0 1012.9 +28.3
19 18.04 СВ 1 40 км ясно +19.9 +16.4 80 +23 +23 комфорт 1016.2 1013.1
20 18.04 СВ 2 40 км ясно +20.0 +13.6 67 +23 +23 комфорт 1016.2 1013.2
21 18.04 СВ 2 40 км ясно +19.0 +14.4 75 +21 +21 комфорт 1016.0 1012.9
22 18.04 СВ 2 40 км ясно +18.1 +16.5 90 +19 +19 1015.8 1012.7
23 18.04 В 2 40 км ясно +17.6 +15.8 89 +18 +18 1015.1 1012.0
00 19.04 З 1 40 км ясно +16.8 +14.2 85 +18 +18 1014.8 1011.7
01 19.04 З 3 40 км 1/1 300 м
[St]
+16.5 +13.2 81 +16 +16 1014.7 1011.6
02 19.04 З 2 40 км ясно +16.5 +12.8 79 +17 +17 1014.5 1011.4
03 19.04 СЗ 1 35 км ясно +15.5 +12.3 81 +16 +16 1014.5 1011.4
04 19.04 СВ 1 35 км ясно +15.6 +9.9 69 +17 +18 1014.5 1011.4
05 19.04 Ю 1 35 км ясно +19.1 +11.0 59 +21 +25 комфорт 1014.7 1011.6
06 19.04 З 2 25 км ясно +21.8 +9.2 45 +23 +31 комфорт 1014.8 1011.8 +14.8
07 19.04 З 4 25 км ясно +22.8 +11.8 50 +25 +33 комфорт 1015.0 1012.0
08 19.04 З 6 25 км 1/0
[Ci fib]
+23.2 +16.0 64 +28 +33 душно 1015.1 1012.0
09 19.04 З 9 18 км 1/0
[Ci fib]
+22.6 +17.3 72 +27 +30 душно 1014.9 1011.9
10 19.04 З 11
{15}
18 км 4/0
[Ci fib]
+21.5 +16.5 73 +25 +25 комфорт 1014.9 1011.8
11 19.04 З 10
{15}
18 км 9/0
[Ci fib]
+24.8 +15.1 55 +28 +28 жарко 1014.0 1011.0
12 19.04 З 11
{15}
15 км 6/0
[Ci fib]
+22.1 +16.2 69 +26 +26 душно 1013.6 1010.6
13 19.04 З 10
{16}
15 км 8/0
[Ci fib]
+22.4 +17.0 72 +27 +27 душно 1013.0 1010.0
14 19.04 З 8
{16}
15 км 9/0
[Cs]
+21.7 +17.1 75 +26 +27 душно 1012.4 1009.3
15 19.04 З 9
{14}
15 км 9/0
[Ci fib]
+21.4 +16.8 75 +25 +25 комфорт 1012.0 1008.9
16 19.04 З 9
{14}
18 км 9/0
[Ci fib]
+20.0 +16.7 81 +22 +22 комфорт 1011.4 1008.4
17 19.04 З 8
{13}
20 км 9/0
[Ci sp]
+19.4 +17.2 87 +21 +21 комфорт 1011.5 1008.4
18 19.04 З 9
{13}
20 км 9/0
[Ci sp]
+19.1 +17.0 88 +20 +20 1011.7 1008.7 +24.9
19 19.04 З 10
{14}
20 км 9/0
[Ci fib]
+19.0 +16.5 85 +19 +19 1012.0 1008.9
20 19.04 З 9
{13}
20 км 9/0
[Ci fib]
+18.9 +16.5 86 +19 +19 1011.4 1008.3
21 19.04 З 7
{14}
20 км 9/0
[Ci fib]
+18.7 +16.3 86 +19 +19 1011.0 1008.0
22 19.04 З 9
{16}
25 км 9/0
[Ci fib]
+18.6 +16.9 90 +19 +19 1010.5 1007.5
23 19.04 З 7 25 км 9/0
[Ci fib]
+18.4 +16.2 87 +18 +18 1010.2 1007.1
00 20.04 З 6 25 км 4/0
[Ci fib]
+18.3 +15.6 84 +18 +18 1009.7 1006.7
01 20.04 З 6 20 км 4/0
[Ci fib]
+18.2 +16.1 88 +18 +18 1009.5 1006.4
02 20.04 З 7 20 км 1/0
[Ci fib]
+18.2 +16.2 88 +18 +18 1009.0 1005.9
03 20.04 З 6 15 км 1/1 540 м
[Sc Ci fib]
+18.0 +16.0 88 +18 +18 1008.9 1005.8
04 20.04 З 4 15 км 1/1 540 м
[Sc]
+17.9 +15.9 88 +18 +18 1008.8 1005.8
05 20.04 З 5 15 км 6/6 450 м
[Sc]
+19.2 +15.5 79 +20 +21 1008.7 1005.7
06 20.04 З 6 15 км 3/3 540 м
[Cu hum]
+19.5 +15.1 76 +21 +23 комфорт 1008.6 1005.5 +17.9
07 20.04 З 9
{13}
15 км 1/1 540 м
[Cu hum]
+20.6 +14.7 69 +23 +24 комфорт 1008.5 1005.5
08 20.04 З 9
{13}
15 км 3/3 660 м
[Sc diur, vesp]
+20.4 +14.7 70 +22 +24 комфорт 1008.5 1005.4
09 20.04 З 10
{14}
15 км 1/1 750 м
[Sc diur, vesp]
+21.4 +15.4 69 +25 +26 комфорт 1008.4 1005.3
10 20.04 З 10
{15}
15 км 1/1 750 м
[Sc diur, vesp]
+22.0 +15.4 66 +26 +27 душно 1007.9 1004.9
11 20.04 З 11
{15}
15 км 1/1 750 м
[Sc diur, vesp]
+21.1 +15.4 70 +24 +24 комфорт 1007.6 1004.5
12 20.04 З 10-15
{15}
15 км 1/1 840 м
[Cu hum]
+20.8 +15.0 69 +23 +24 комфорт 1007.0 1004.0
13 20.04 З 11
{16}
15 км 1/1 840 м
[Sc diur, vesp]
+21.0 +14.9 68 +23 +24 комфорт 1006.5 1003.4
14 20.04 З 10
{16}
15 км 1/1 900 м
[Cu hum]
+20.6 +14.9 70 +23 +23 комфорт 1006.0 1003.0
15 20.04 З 10
{15}
15 км ясно +20.3 +14.8 71 +22 +22 комфорт 1006.1 1003.0
16 20.04 З 8
{15}
12 км 1/1 660 м
[Sc diur, vesp]
+19.4 +14.6 74 +20 +20 1005.8 1002.8
17 20.04 З 7 12 км 1/1 660 м
[Cu hum]
+18.9 +15.0 78 +19 +19 1006.1 1003.1
18 20.04 З 6 12 км 1/1 720 м
[Cu hum]
+18.7 +15.6 82 +19 +19 1006.5 1003.4 +22.7
19 20.04 З 4 12 км 3/3 600 м
[Sc]
+18.8 +15.8 83 +20 +20 1007.0 1003.9
20 20.04 З 5 15 км 5/4 600 м
[Sc Ci fib]
+18.8 +15.7 82 +20 +20 1006.5 1003.5
21 20.04 З 3 15 км 8/1 600 м
[Sc Ci fib]
+18.4 +15.7 84 +19 +19 1006.4 1003.3
22 20.04 З 4 15 км 5/3 660 м
[Sc Ci fib]
+18.1 +15.7 86 +18 +18 1006.4 1003.3
23 20.04 З 3 15 км 3/3 540 м
[Sc]
+17.9 +15.9 88 +18 +18 1005.4 1002.3
00 21.04 З 3 12 км 3/3 660 м
[Sc]
+18.1 +16.1 88 +19 +19 1005.3 1002.2
01 21.04 З 2 12 км 1/1 660 м
[Sc]
+17.3 +15.1 87 +18 +18 1004.5 1001.5
02 21.04 СВ 2 12 км 1/1 660 м
[Sc]
+15.7 +13.9 89 +16 +16 1004.2 1001.1
03 21.04 С 2 12 км 3/3 700 м
[Sc]
+15.6 +12.7 83 +16 +16 1004.4 1001.3
04 21.04 В 3 12 км 8/8 720 м
[Sc]
+17.5 +14.6 83 +18 +18 1005.0 1001.9
05 21.04 В 6 15 км 6/6 1200 м
[Sc diur, vesp]
+18.9 +15.0 78 +20 +20 1005.1 1002.1
06 21.04 В 7 20 км 5/5 1350 м
[Sc]
+20.7 +13.5 63 +23 +24 комфорт 1005.6 1002.6 +15.4
07 21.04 В 8 30 км 3/3 1500 м
[Sc]
+22.0 +10.6 48 +24 +25 комфорт 1006.1 1003.1
08 21.04 В 8 35 км 8/8 1500 м
[Sc]
+21.6 +11.2 52 +24 +24 комфорт 1006.8 1003.8
09 21.04 В 8 35 км 3/3 900 м
[Cu Sc]
+22.0 +11.3 51 +24 +27 комфорт 1006.6 1003.6
10 21.04 В 9 35 км осадки на расстоянии 5/1 1200 м
[Cb cap Ac trans]
+23.6 +9.5 41 +25 +26 комфорт 1006.6 1003.6
11 21.04 В 9 8000 м осадки на расстоянии 9/5 1200 м
[Cb cap Ac trans]
+22.3 +12.0 52 +25 +25 комфорт 1006.9 1003.9
12 21.04 СВ 6 40 км в посл. час ливневой дождь 8/4 1000 м
[Cb cap Ac trans]
+22.1 +11.4 51 +24 +26 комфорт 1007.3 1004.2 0.0
13 21.04 В 6 40 км 3/3 1200 м
[Cb cap]
+21.7 +11.0 51 +24 +27 комфорт 1007.5 1004.5
14 21.04 В 6 45 км 8/4 1200 м
[Cu med, cong Ac trans]
+21.0 +10.8 52 +23 +24 комфорт 1007.7 1004.6
15 21.04 ЮВ 3 45 км 9/6 1200 м
[Cu Sc Ac cast]
+20.3 +11.5 57 +22 +23 комфорт 1007.9 1004.9
16 21.04 ЮВ 3 45 км 9/1 1200 м
[Cu med, cong Ac trans]
+19.7 +12.0 61 +22 +22 комфорт 1008.1 1005.1
17 21.04 Ю 2 50 км слабый ливневой дождь 9/9 1200 м
[Sc diur, vesp]
+19.3 +12.5 65 +21 +21 комфорт 1008.4 1005.3
18 21.04 ЮЗ 2 50 км в посл. час ливневой дождь 9/9 1000 м
[Sc diur, vesp]
+19.2 +13.0 67 +21 +21 комфорт 1008.9 1005.9 0.0
19 21.04 З 3 50 км 9/9 1500 м
[Sc diur, vesp]
+18.6 +13.0 70 +20 +20 1009.2 1006.1
20 21.04 З 2 40 км зарница 6/5 2000 м
[Sc diur, vesp Ci ing]
+17.9 +10.3 61 +18 +18 1009.4 1006.3
21 21.04 СЗ 2 н/о н/о +17.2 +9.8 62 +18 +18 1009.4 1006.3
22 21.04 СЗ 3 40 км зарница 5/0
[Ac trans Ci ing]
+17.3 +7.5 53 +17 +17 1009.5 1006.4
23 21.04 С 1 40 км 3/0
[Ac trans Ci ing]
+17.8 +9.7 59 +19 +19 1009.5 1006.4
00 22.04 З 3 40 км 1/0 2000 м
[Ac trans]
+17.8 +8.0 53 +18 +18 1009.3 1006.2
01 22.04 С 5 40 км 1/0
[Ac trans]
+16.3 +4.0 44 +16 +16 1009.0 1005.9
02 22.04 С 5 40 км 1/0
[Ac trans]
+16.2 +3.8 44 +15 +15 1009.0 1005.9
03 22.04 СЗ 3 50 км 1/0 2000 м
[Ac trans]
+15.6 +5.0 49 +15 +15 1009.3 1006.2
04 22.04 СЗ 3 60 км 1/1 1200 м
[Cu hum Ac trans]
+15.8 +6.0 52 +15 +16 1009.9 1006.8
05 22.04 СЗ 2 60 км 1/1 1200 м
[Cu hum Ac trans]
+18.3 +4.6 40 +19 +22 1010.4 1007.3
06 22.04 СВ 3 60 км 1/1 1200 м
[Cu hum Ac trans]
+20.9 +1.4 27 +22 +27 комфорт 1010.7 1007.7 +15.3
07 22.04 СВ 2 60 км 1/1 1200 м
[Cu hum Ac trans]
+21.6 +2.6 29 +22 +33 комфорт 1011.4 1008.3
08 22.04 Ю 4 60 км 1/1 1200 м
[Cu hum Ac trans]
+22.3 +3.0 28 +22 +33 комфорт 1011.6 1008.6
09 22.04 Ю 4 60 км 1/1 1500 м
[Cu hum]
+22.2 +5.6 34 +23 +34 комфорт 1011.7 1008.7
10 22.04 ЮЗ 6 60 км 1/0
[Ac trans]
+22.2 +9.5 44 +24 +32 комфорт 1011.9 1008.9
11 22.04 ЮЗ 6 60 км 1/1 1500 м
[Cu hum]
+22.8 +5.9 33 +23 +30 комфорт 1011.8 1008.8
12 22.04 ЮЗ 6 50 км 1/0 2000 м
[Ac trans]
+22.6 +8.5 40 +24 +29 комфорт 1011.6 1008.6
13 22.04 З 7 60 км 1/1 2000 м
[Cu hum]
+23.3 +6.6 34 +24 +26 комфорт 1011.3 1008.2
14 22.04 З 9 60 км 1/0
[Ac trans]
+21.9 +8.1 41 +23 +23 комфорт 1011.1 1008.1
15 22.04 З 8 60 км ясно +20.9 +9.8 49 +22 +22 комфорт 1011.2 1008.2
16 22.04 З 7 50 км ясно +20.2 +10.0 52 +21 +21 комфорт 1011.3 1008.3
17 22.04 З 7 50 км ясно +19.1 +10.0 56 +19 +19 1011.7 1008.6
18 22.04 З 4 н/о н/о +19.1 +9.9 55 +20 +20 1012.4 1009.3 +23.3
19 22.04 СЗ 2 40 км ясно +17.5 +9.7 60 +18 +18 1013.5 1010.4

 

Местоположение метеостанции Akrotiri (Кипр): широта 34.58 долгота 32.98 высота над уровнем моря 23 м.

В архиве по умолчанию представлена погода в Akrotiri за последнюю неделю. Архивные данные за месяц целиком и за предыдущие месяцы, начиная с января 2011 года, Вы можете получить, выбрав интересующий диапазон дат из раскрывающегося списка и нажав кнопку "Ввод!".


*Определитесь, кто Вы:
робот инопланетянин человек

Внимание! Время в таблицах - всемирное. Для получения местного времени необходимо прибавить поправку, которая в Akrotiri равна 2 ч.

Смотрите также архив погоды в соседних городах и на ближайших метеорологических станциях:

Погода в Paphos (Кипр) (48 км)
Погода в Larnaca (Кипр) (68 км)
Погода в Athalassa (Кипр) (74 км)
Погода в Nicosia (Кипр) (79 км)
Погода в Akdeniz (Кипр) (80 км)
Погода в Kyrenia (Кипр) (91 км)
Погода в Gecitkale (Кипр) (100 км)
Погода в Lefkoniko (Кипр) (101 км)
Погода в Unknown (Кипр) (104 км)
Погода в Famagusta (Кипр) (108 км)

Пояснения к столбцам:

Ветер - указаны скорость ветра в м/с - средняя за 10 мин, порывы в срок и между сроками (в фигурных скобках) и направление, откуда дует ветер: С - северный, СВ - северо-восточный, В - восточный, ЮВ - юго-восточный, Ю - южный, ЮЗ - юго-западный, З - западный, СЗ - северо-западный.
Видимость - горизонтальная дальность видимости в метрах или километрах. При видимости от 1 до 10 км при отсутствии осадков обычно наблюдается дымка, при ухудшении видимости до 1 км и менее - туман. В сухую погоду видимость может ухудшаться дымом, пылью или мглою.
Явления - указаны атмосферные явления, наблюдавшиеся в срок или в последний час перед сроком; фигурными скобками обозначены явления, наблюдавшиеся между сроками (за 1-3 часа до срока); квадратными скобками обозначены град или гололедные отложения с указанием их диаметра в мм.
Облачность - указаны через наклонную черту общая и нижняя облачность в баллах и высота нижней границы облаков в метрах; квадратными скобками обозначены формы облаков: Ci - перистые, Cs - перисто-слоистые, Cc - перисто-кучевые, Ac - высококучевые, As - высокослоистые, Sc - слоисто-кучевые, Ns - слоисто-дождевые, Cu - кучевые, Cb - кучево-дождевые. Подробнее классификацию облаков см. в Атласе облаков (PDF).
T - Температура воздуха - температура, измеренная на высоте 2 м над землей.
Td - Температура точки росы - температура, при понижении до которой содержащийся в воздухе водяной пар достигнет насыщения.
f - Относительная влажность воздуха - влажноcть воздуха, измеренная на высоте 2 м над землей.
Te - Эффективная температура - температура, которую ощущает одетый по сезону человек в тени. Характеристика душности погоды. При расчете учитывается влияние влажности воздуха и скорости ветра на теплоощущения человека.
Tes - Эффективная температура на солнце - температура, которую ощущает человек, с поправкой на солнечный нагрев. Характеристика знойности погоды. Зависит от высоты солнца над горизонтом, облачности и скорости ветра. Ночью, в пасмурную погоду, а также при ветре 12 м/с и более поправка равна нулю.
P - Атмосферное давление - приведенное к уровню моря атмосферное давление.
Po - Атмосферное давление - измеренное на уровне метеостанции атмосферное давление.
Tmin - Минимальная температура - минимум температуры воздуха на высоте 2 м над землей.
Tmax - Максимальная температура - максимум температуры воздуха на высоте 2 м над землей.
R - Количество осадков - Количество выпавших осадков за период времени, мм. При наведении курсора мыши на число - период времени, за который выпало указанное количество осадков.
R24 - Количество осадков - Количество выпавших осадков за 24 часа, мм.
S - Снежный покров - Высота снежного покрова, см. При наведении курсора мыши на число - состояние снежного покрова и степень покрытия местности в баллах.